Location: Ammerl�gen
(47.2167°N, 9.6000°E)
Time: 06:31:51
(UTC+00:00)

Cosmos 1892 - Pass Details

Date: 21 April 2021
Orbit: 503 x 523 km, 82.5° (Epoch: 15 May)

Event Time Altitude Azimuth Distance (km) Brightness Sun altitude
Rises 19:02:44 0° 344° (NNW) 2,617 7.0 -7.6°
Reaches altitude 10° 19:04:56 10° 338° (NNW) 1,729 6.2 -8.0°
Maximum altitude 19:08:31 43° 266° (W) 730 4.0 -8.5°
Drops below altitude 10° 19:12:06 10° 195° (SSW) 1,723 5.2 -9.0°
Sets 19:14:17 0° 188° (S) 2,607 6.1 -9.4°
